Home > Weather > Waldkraiburg > Past weeks

Flag for Germany Past Weather in Waldkraiburg, Bavaria, Germany — Yesterday and Last 2 Weeks

Now
77 °F

Broken clouds.


Feels Like: 79 °F
Forecast: 63 / 79 °F
Wind: 9 mph from Northwest

Location: Munich / Franz Josef Strauss Airport

Current Time: Jul 23, 2016 at 5:15:37 PM

Latest Report: Jul 23, 2016 at 4:20 PM


Visibility: N/A

Pressure: 30.04 "Hg

Humidity: 65%

Dew Point: 64 °F

Location of WaldkraiburgLocation

Past Weather in Waldkraiburg — Graph

°F

Waldkraiburg Temperature Yesterday

Maximum temperature yesterday: 79 °F (at 3:50 PM)
Minimum temperature yesterday: 57 °F (at 4:20 AM)
Average temperature yesterday: 68 °F

High & Low Weather Summary for the Past Weeks

 TemperatureHumidityPressure
High90 °F (Jul 11, 3:20 PM)100% (Jul 10, 3:20 AM)30.33 "Hg (Jul 10, 3:20 AM)
Low48 °F (Jul 15, 2:50 AM)28% (Jul 8, 5:50 PM)29.86 "Hg (Jul 11, 6:20 PM)
Average67 °F74%30.09 "Hg
* Reported Jul 8 4:20 PM — Jul 23 4:20 PM, Waldkraiburg, Weather by CustomWeather, © 2016

Note: Actual official high and low records may vary slightly from our data, if they occured in-between our weather recording intervals... More about our weather records

Advertising

Waldkraiburg Weather History for the Previous 24 Hours

Scroll right to see more
 ConditionsComfort  
Time TempWeatherWind HumidityBarometerVisibility
4:20 PM
Sat, Jul 23
77 °FBroken clouds.9 mph65%30.04 "HgN/A
3:50 PM79 °FBroken clouds.3 mph58%30.04 "HgN/A
3:20 PM79 °FBroken clouds.2 mph58%30.04 "HgN/A
2:50 PM79 °FPartly sunny.3 mph58%30.04 "HgN/A
2:20 PM79 °FPartly sunny.3 mph58%30.07 "HgN/A
1:50 PM77 °FScattered clouds.3 mph57%30.07 "HgN/A
1:20 PM77 °FBroken clouds.2 mph61%30.07 "HgN/A
12:50 PM75 °FBroken clouds.5 mph65%30.07 "HgN/A
12:20 PM73 °FPartly sunny.5 mph69%30.07 "HgN/A
11:50 AM73 °FPartly sunny.5 mph69%30.07 "HgN/A
11:20 AM73 °FPassing clouds.5 mph69%30.07 "HgN/A
10:50 AM73 °FPassing clouds.5 mph74%30.07 "HgN/A
10:20 AM70 °FPartly sunny.7 mph83%30.07 "HgN/A
9:50 AM70 °FPartly sunny.6 mph83%30.07 "HgN/A
9:20 AM68 °FPartly sunny.7 mph88%30.07 "HgN/A
8:50 AM68 °FPartly sunny.5 mph88%30.07 "HgN/A
8:20 AM66 °FPartly sunny.3 mph94%30.04 "HgN/A
7:50 AM66 °FOvercast.3 mph94%30.04 "HgN/A
7:20 AM64 °FPartly sunny.2 mph100%30.04 "HgN/A
6:50 AM64 °FPartly sunny.7 mph94%30.04 "Hg6 mi
6:20 AM63 °FPassing clouds.6 mph100%30.04 "Hg6 mi
5:50 AM63 °FPassing clouds.5 mph100%30.04 "Hg6 mi
5:20 AM63 °FPassing clouds.7 mph100%30.04 "HgN/A
4:50 AM61 °FPartly cloudy.7 mph100%30.04 "HgN/A
4:20 AM61 °FClear.7 mph100%30.04 "Hg10 mi
3:50 AM63 °FClear.8 mph94%30.04 "Hg10 mi
3:20 AM63 °FClear.8 mph100%30.04 "Hg10 mi
2:50 AM63 °FClear.7 mph100%30.04 "Hg10 mi
2:20 AM63 °FClear.8 mph100%30.04 "Hg10 mi
1:50 AM63 °FClear.8 mph100%30.04 "Hg10 mi
1:20 AM64 °FClear.8 mph94%30.04 "Hg10 mi
12:50 AM64 °FClear.6 mph94%30.04 "Hg10 mi
12:20 AM64 °FClear.7 mph100%30.04 "Hg10 mi
11:50 PM
Fri, Jul 22
66 °FClear.10 mph94%30.04 "Hg10 mi
11:20 PM66 °FClear.9 mph94%30.04 "Hg10 mi
10:50 PM66 °FClear.6 mph88%30.01 "Hg10 mi
10:20 PM68 °FPassing clouds.3 mph78%30.01 "HgN/A
9:50 PM68 °FPartly sunny.7 mph78%30.01 "HgN/A
9:20 PM70 °FBroken clouds.7 mph73%30.01 "HgN/A
8:50 PM70 °FBroken clouds.13 mph73%30.01 "HgN/A
8:20 PM72 °FMore clouds than sun.6 mph73%30.01 "HgN/A
7:50 PM73 °FMore clouds than sun.No wind74%29.98 "HgN/A
7:20 PM73 °FBroken clouds.1 mph74%30.01 "HgN/A
6:50 PM75 °FBroken clouds.2 mph65%30.01 "HgN/A
6:20 PM77 °FPartly sunny.2 mph61%29.98 "HgN/A
5:50 PM77 °FPartly sunny.3 mph57%29.98 "HgN/A
5:20 PM77 °FPartly sunny.5 mph54%29.98 "HgN/A
Weather by CustomWeather, © 2016

See weather overviewHow to use our weather pages